Regional Weather Roundup
Issued by NWS Charleston, SC

Current Version | Previous Version | Text Only | Print | Product List | Glossary Off
Versions: 1 2 3 4 5 6 7 8 9 10 11 12 13 14 15 16 17 18 19 20 21 22 23 24 25 26 27 28 29 30 31 32 33 34 35 36 37 38 39 40 41 42 43 44 45 46 47 48 49 50
000 ASUS42 KCHS 201210 RWRCHS REGIONAL WEATHER ROUNDUP NATIONAL WEATHER SERVICE CHARLESTON SC 800 AM EDT WED AUG 20 2014 NOTE: "FAIR" INDICATES FEW OR NO CLOUDS BELOW 12,000 FEET WITH NO SIGNIFICANT WEATHER AND/OR OBSTRUCTIONS TO VISIBILITY. NOT ALL STATIONS ARE QUALITY CONTROLLED BY THE NATIONAL WEATHER SERVICE. USE DATA WITH CAUTION...ESPECIALLY DEWPOINT OBSERVATIONS. SCZ027-030-031-034>040-042>050-201300- ...SOUTH CAROLINA... CITY SKY/WX TMP DP RH WIND PRES REMARKS N CHARLESTON MOSUNNY 77 72 84 W6 29.97R 6HR MIN TEMP: 75; 6HR MAX TEMP: 78; WATERFRONT PRK N/A 75 N/A N/A W7 N/A FORT JOHNSON NOT AVBL MOUNT PLEASANT FAIR 75 73 94 W6 29.97R FOG JOHNS ISLAND SUNNY 77 75 94 CALM 29.97R PINOPOLIS N/A 77 73 88 W8 29.88R MONCKS CORNER N/A 75 75 100 CALM 29.97R FOG SUMMERVILLE FAIR 73 73 100 CALM 29.97R BEAUFORT MCAS MOSUNNY 76 72 87 NW8 29.99R 6HR MIN TEMP: 74; 6HR MAX TEMP: 76; BEAUFORT ARPT FAIR 75 73 94 W8 29.98R HILTON HEAD IS SUNNY 75 72 88 SW14 30.01R GEORGETOWN NOT AVBL WALTERBORO SUNNY 75 N/A N/A W6 29.98R ORANGEBURG SUNNY 73 71 93 CALM 29.97R 6HR MIN TEMP: 72; 6HR MAX TEMP: 74; BARNWELL FAIR 73 73 100 SW6 29.97S AIKEN FAIR 73 73 100 W5 30.01R MANNING FAIR 75 N/A N/A CALM 29.96R KINGSTREE NOT AVBL COLUMBIA MOSUNNY 74 70 87 CALM 29.95R 6HR MIN TEMP: 72; 6HR MAX TEMP: 77; SUMTER SUNNY 75 72 91 W3 29.94R 6HR MIN TEMP: 72; 6HR MAX TEMP: 76; FLORENCE FOG 74 73 97 CALM 29.94R VSB<1/4 6HR MIN TEMP: 72; 6HR MAX TEMP: 75; 6HR PCP: TRACE; MYRTLE BEACH SUNNY 75 72 88 NW6 29.94R N MYRTLE BEACH SUNNY 76 74 93 W3 29.93R 6HR MIN TEMP: 75; 6HR MAX TEMP: 76; $$ GAZ063-065-086>088-099>101-113>116-118-119-134-136>141-150-201300- ...GEORGIA... CITY SKY/WX TMP DP RH WIND PRES REMARKS SAVANNAH ARPT SUNNY 74 70 87 W9 30.01R 6HR MIN TEMP: 73; 6HR MAX TEMP: 74; HUNTER AAF SUNNY 75 71 87 W10 29.99R 6HR MIN TEMP: 72; 6HR MAX TEMP: 75; FORT STEWART SUNNY 75 71 85 W9 30.00R 6HR MIN TEMP: 72; 6HR MAX TEMP: 75; STATESBORO NOT AVBL SYLVANIA SUNNY 73 73 100 CALM 30.01R CLAXTON FAIR 73 73 100 W3 30.01R THOMSON SUNNY 75 75 100 CALM 30.04R AUGUSTA-BUSH SUNNY 74 72 93 CALM 29.97R 6HR MIN TEMP: 70; 6HR MAX TEMP: 74; AUGUSTA-DANIEL SUNNY 76 72 87 W5 29.99R SWAINSBORO FAIR 73 73 100 W3 30.02R VIDALIA N/A 72 72 100 W6 30.02R ALMA SUNNY 72 70 93 W3 30.03R 6HR MIN TEMP: 70; 6HR MAX TEMP: 72; WAYCROSS SUNNY 78 75 90 W5 30.04R JESUP N/A 75 73 94 W5 30.03R BRUNSWICK MOSUNNY 77 72 83 W8 30.03R SAINT SIMONS MOSUNNY 76 73 91 W10 30.02R 6HR MIN TEMP: 76; 6HR MAX TEMP: 77; $$ SCZ027-028-034-036>038-045-046-048>050-GAZ119-141-201300- ...LAKE AND SUPPLEMENTAL COASTAL OBSERVATIONS... STATION/POSITION TIME TEMP WIND PRES WAVE SWELL AIR SEA DIR/SP/G HT/PER HT/PER/DIR (UTC) (F) (DEG/KT/KT) (MB) (FT/S) (FT/S/D) UPR LAKE MARION NOT AVBL WINYAH BAY 1100 75 290/ 5 1013.0S LAKE MURRAY 1100 75 280/ 3/ 5 1013.5R ACE BASIN NERRS 1100 74 250/ 1 1014.0S FORT PULASKI 1200 76 250/ 7/ 9 1015.9R SAPELO ISLAND 1100 76 240/ 9 1016.0R $$ ANZ835-935-AMZ111-154-330-350-352-354-374-450-454-472-201300- ...C-MAN AND BUOY OBSERVATIONS... STATION/POSITION TIME TEMP WIND PRES WAVE SWELL AIR SEA DIR/SP/G HT/PER HT/PER/DIR (UTC) (F) (DEG/KT/KT) (MB) (FT/S) (FT/S/D) FOLLY BEACH CMAN 1100 75 260/ 4/ 7 1014.5R BUOY 41004 1200 81 83 260/ 12/ 14 1013.8R 4/ 5 2/ 6 BUOY 41008 1200 80 85 270/ 14/ 16 1015.9R 2/ 3 2/120/ 8 5E ST. MARYS GA 1200 81 N/A 2/ 2 FRYING PAN BUOY NOT AVBL BUOY 41025 1200 78 320/ 8/ 12 1012.6R 2/ 7 2/190/ 7 CAPE LOOKOUT NC 1100 78 320/ 7/ 9 1012.4R BUOY 41002 1149 82 81 240/ 19/ 23 1014.9R 6/ 6 2/120/10 BUOY 41010 1200 81 85 240/ 12/ 14 1017.6F 3/ 4 2/140/ 8 BUOY 41012 NOT AVBL ST AUGUSTINE FL 1200 80 260/ 3/ 4 1018.0R CAPERS NEARSHORE 1100 78 280/ 12/ 14 N/A FRIPP NEARSHORE NOT AVBL $$

USA.gov is the U.S. government's official web portal to all federal, state and local government web resources and services.